Regional Weather Roundup
Issued by NWS

Home | Current Version | Previous Version | Graphics & Text | Print | Product List | Glossary On
Versions: 1 2 3 4 5 6 7 8 9 10 11 12 13 14 15 16 17 18 19 20 21 22 23 24 25 26 27 28 29 30 31 32 33 34 35 36 37 38 39 40 41 42 43 44 45 46 47 48 49 50
000
ASUS43 KMKX 151520
RWRWI

WISCONSIN REGIONAL WEATHER ROUNDUP
NATIONAL WEATHER SERVICE MILWAUKEE/SULLIVAN WI
900 AM CST FRI DEC 15 2017

NOTE: "FAIR" INDICATES FEW OR NO CLOUDS BELOW 12,000 FEET WITH NO
SIGNIFICANT WEATHER AND/OR OBSTRUCTIONS TO VISIBILITY.

WIZ001-002-006>008-014>016-023>028-151600-
NORTHWEST WISCONSIN

CITY           SKY/WX    TMP DP  RH WIND       PRES   REMARKS
SUPERIOR ARPT  CLOUDY    14   5  68 W9        29.89S WCI   2
ASHLAND        LGT SNOW  14   9  80 W7        29.85F WCI   4
HAYWARD        LGT SNOW  14   7  73 VRB7      29.84S WCI   4
SIREN          CLOUDY    14   8  77 CALM      29.88S
CUMBERLAND     FLURRIES  14   7  73 NW7       29.86R WCI   4
RICE LAKE      FLURRIES  15   8  75 W8        29.89R WCI   3
CHETEK         MOCLDY    15   8  73 NW5       29.88R WCI   7
LADYSMITH      FLURRIES  15   9  78 NW8       29.86R WCI   4
EAU CLAIRE     CLOUDY    16  10  77 NW10      29.89R WCI   4
MENOMONIE      CLOUDY    19  12  75 W6        29.89S WCI  11
NEW RICHMOND   CLOUDY    17  10  76 N7        29.89S WCI   7
OSCEOLA        CLOUDY    17  10  75 N5        29.93R WCI  10
$$

WIZ003>005-009-010-017-018-151600-
NORTH CENTRAL WISCONSIN

CITY           SKY/WX    TMP DP  RH WIND       PRES   REMARKS
MANITOWISH WTR LGT SNOW  11   9  90 W7        29.75S WCI   1
ARBOR VITAE    LGT SNOW  14  10  85 W7        29.76S WCI   4
WOODRUFF       LGT SNOW  14  10  85 W7        29.76S WCI   4
RHINELANDER    CLOUDY    12   8  84 W10       29.77S WCI  -1
EAGLE RIVER    LGT SNOW  12   7  79 W10G16    29.74R WCI  -1
LAND O LAKES   LGT SNOW  13   9  85 W6        29.75R WCI   3
PHILLIPS       LGT SNOW  12   9  88 W3        29.79S
TOMAHAWK       FLURRIES  12   8  83 W6        29.80R WCI   3
MEDFORD        FLURRIES  13   8  81 W7        29.81R WCI   2
MERRILL        FLURRIES  14   8  78 NW5       29.81S WCI   6
$$

WIZ029-030-035-036-043>047-151600-
CENTRAL WISCONSIN

CITY           SKY/WX    TMP DP  RH WIND       PRES   REMARKS
WAUSAU         LGT SNOW  15  10  80 W9        29.81R WCI   3
MOSINEE        CLOUDY    16  10  79 W8G16     29.83R WCI   5
MARSHFIELD     CLOUDY    15   9  76 NW12      29.83R WCI   2
STEVENS POINT  FLURRIES  16  10  77 NW7       29.84R WCI   6
WAUPACA        CLOUDY    23  16  73 W7        29.84S WCI  15
WAUTOMA        CLOUDY    21  13  71 W15       29.87R WCI   8
WISC RAPIDS    CLOUDY    19  10  68 W8        29.87R WCI   9
CAMP DOUGLAS   FLURRIES  21  14  73 NW8       29.88R WCI  12
$$

WIZ011>013-019>022-031-037>040-048>050-151600-
NORTHEAST WISCONSIN

CITY           SKY/WX    TMP DP  RH WIND       PRES   REMARKS
ANTIGO         FLURRIES  11   6  79 NW10G16   29.78S WCI  -2
SHAWANO        CLOUDY    19  10  68 NW9       29.83S WCI   8
OCONTO         SUNNY     16   8  70 W9        29.82S WCI   4
STURGEON BAY   CLOUDY    18  11  74 W16G23    29.80R WCI   3
GREEN BAY      CLOUDY    20  10  65 NW13      29.83S WCI   7
MANITOWOC      FLURRIES  21  14  74 NW14      29.84R WCI   8
APPLETON       CLOUDY    19  12  73 W13       29.81S WCI   7
CLINTONVILLE   CLOUDY    19  10  68 NW9       29.83S WCI   9
OSHKOSH        CLOUDY    21  15  78 W12       29.84R WCI   9
$$

WIZ032>034-041-042-053>061-151600-
SOUTHWEST WISCONSIN

CITY           SKY/WX    TMP DP  RH WIND       PRES   REMARKS
LA CROSSE      CLOUDY    25  18  74 CALM      29.91R
SPARTA         CLOUDY    23  17  78 W7        29.90R WCI  15
VIROQUA        CLOUDY    22  18  84 CALM      29.87S
BOSCOBEL       CLOUDY    27  17  66 SW6       29.93F WCI  20
PRAIRIE DU CHI LGT SNOW  27  20  77 CALM      29.94S
PLATTEVILLE    CLOUDY    26  20  77 W12       29.92S WCI  16
$$

WIZ056-057-062-063-064-067-068-151600-
SOUTH CENTRAL WISCONSIN

CITY           SKY/WX    TMP DP  RH WIND       PRES   REMARKS
REEDSBURG      CLOUDY    23  13  64 W10G18    29.89R WCI  12
BARABOO/DELLS  CLOUDY    23  12  64 W8        29.88R WCI  13
LONE ROCK      CLOUDY    25  16  68 W14       29.91F WCI  13
MINERAL POINT  CLOUDY    28  19  69 W9        29.89F WCI  20
MADISON        PTSUNNY   24  11  57 NW13G28   29.89S WCI  12
MIDDLETON      CLOUDY    26  13  58 W10       29.89S WCI  16
WATERTOWN      CLOUDY    23  12  63 W9        29.87S WCI  13
MONROE         CLOUDY    27  14  59 W15       29.90S WCI  15
JANESVILLE     CLOUDY    27  14  59 NW12G17   29.90S WCI  16
$$

WIZ051-052-058>065-066-070>072-151600-
SOUTHEAST WISCONSIN

CITY           SKY/WX    TMP DP  RH WIND       PRES   REMARKS
MILWAUKEE      FLURRIES  25  17  72 W10       29.88R WCI  15
WAUKESHA       CLOUDY    21  14  73 W14G23    29.88R WCI   8
MILWAUKEE/TIMM CLOUDY    23  14  68 W10G17    29.87S WCI  12
RACINE         FLURRIES  24  15  68 W15G25    29.90R WCI  11
BURLINGTON     FLURRIES  24  19  80 W14       29.89S WCI  11
KENOSHA        LGT SNOW  25  17  72 W10       29.89R WCI  15
FOND DU LAC    CLOUDY    23  14  68 W14       29.85R WCI  11
SHEBOYGAN      FLURRIES  22  17  81 W15       29.83S WCI   9
WEST BEND      FLURRIES  21  18  86 W12       29.84S WCI   9
JUNEAU         CLOUDY    21  13  71 W7        29.87S WCI  13
$$

LSZ147-162-151600-
LAKE SUPERIOR

STATION/POSITION TIME  TEMP    WIND        PRES    WAVE
                       AIR SEA DIR/SP/G            HT/PER
                 (UTC) (F)     (DEG/KT/KT) (MB)    (FT/S)
DEVILS ISLAND    1500   16     300/ 15/ 18 1012.0R
SAXON HARBOR     1440   16                 1010.2S
$$

LMZ867-665-643>646-151600-
LAKE MICHIGAN

STATION/POSITION TIME  TEMP    WIND        PRES    WAVE
                       AIR SEA DIR/SP/G            HT/PER
                 (UTC) (F)     (DEG/KT/KT) (MB)    (FT/S)
NORTHPORT PIER   1503   20     290/  9/ 16 1008.1
KEWAUNEE LAKESHO 1454   20     280/ 10/ 13 1009.1R
SHEBOYGAN LAKESH 1500   22     280/ 11/ 13 1011.4R
PORT WASHINGTON  1430   23     280/  6/ 15 1012.2S
MILWAUKEE LAKESH 1500   24     280/ 10/ 13   N/A
KENOSHA   LAKESH 1500   24     280/ 10/ 14 1012.5
$$

TC  - TEMPERATURE IN CELSIUS
VSB - VISIBILITY IN STATUTE MILES
WCI - WIND CHILL INDEX
HX  - HEAT INDEX





USA.gov is the U.S. government's official web portal to all federal, state and local government web resources and services.